Terug naar catalogus

FENGYUN 1C DEB

ActiefPO
NORAD 38124·DEBRIS·🇨🇳 China

Gelanceerd May 10, 1999 vanaf Taiyuan Satellite Launch Center

Loading…

Volgende Passages (komende 24 uur)

TLE

VersSource: Space-Track

Epoch: Sep 13, 2026, 12:07 UTC

1 38124U 99025EPV 26256.50526712  .00000103  00000-0  16865-3 0  9995
2 38124  97.8120 152.4469 0355600 314.6753  42.5904 13.41050941582643

Volg FENGYUN 1C DEB in realtime met AllMySat

Download on the App Store